Find Starlink 38247

NORAD ID: 100303 Int'l Des: 2026-184 Owner: SPXS Country: US Constellation: starlink operational

現在のビュー

3D地球を読み込み中...

About Starlink 38247

Starlink 38247 (NORAD 100303) is a starlink constellation satellite launched Aug 12, 2026 by SPXS of US. with a mass of 575.00 kg.

次回通過

Passes for default location (London). Set your location on the main map for personalized predictions.

高度履歴

Loading altitude history...

軌道要素

1 A0303U 26184C 26263.87745275 .00012978 00000-0 40364-3 0 9998
2 A0303 97.2845 128.9231 0001514 95.3823 264.7593 15.33443424 7411
Epoch: Sep 20, 2026 • Age: 8 hours

現在のステータス

高度 477.2 km
遠地点 / 近地点 N/A
速度 7.63 km/s
衛星直下点 73.90°N, 24.76°E
打ち上げ日 Aug 12, 2026
運用期間 0.1 years
タイプ internet

技術仕様

分類 Payload
質量 575.00 kg
乾燥質量 530.00 kg
長さ 0.30 m
スパン 29.00 m
形状 ? Box + pan
製造者 SPXS
バスタイプ Starlink V2MO
フェーズステータス In Orbit
所有者/国 SPXS/US

Most Searched